Voltar ao catálogo

DELTA 1 DEB

AtivoSSO
NORAD 42653·DEBRIS·🇺🇸 United States

Lançado Jun 12, 1975 de Vandenberg Space Force Base

Loading…

Próximas Passagens (próximas 24 horas)

TLE

AtualizadoSource: Space-Track

Época: Sep 12, 2026, 03:35 UTC

1 42653U 75052MN  26255.14954878 -.00000022  00000-0  40812-4 0  9999
2 42653  99.7980  35.5479 0069014 146.1688  29.1852 13.30833322622062

Acompanhe DELTA 1 DEB em tempo real com AllMySat

Download on the App Store